Location: Park Creek Village Mobile Home Park
(38.2885°N, 122.4714°W)
Time: 17:12:21
(UTC+00:00)

PAYLOAD B - Pass Details

Date: 14 December 2019
Orbit: 850 x 871 km, 99.1° (Epoch: 20 January)

Event Time Altitude Azimuth Distance (km) Brightness Sun altitude
Rises 13:39:45 0° 12° (NNE) 3,430 7.3 -18.8°
Reaches altitude 10° 13:42:07 10° 12° (NNE) 2,493 6.6 -18.3°
Maximum altitude 13:47:40 82° 285° (WNW) 871 4.1 -17.3°
Drops below altitude 10° 13:53:12 10° 199° (SSW) 2,491 6.6 -16.2°
Sets 13:55:34 0° 198° (SSW) 3,427 7.4 -15.8°
